User: anonymous
Location: Fort Wayne
(41.1310°N, 85.1290°W)
Time: 09:47:27
(UTC-04:00)
Language:

COSMOS 2406 - Orbit

View from above orbital plane
View from above orbital plane
View from above satellite
View from above satellite

Ground track
Ground track

The orbit data is extracted from the following two-line orbital elements,

1 28352U 04021A   14109.85292735  .00000434  00000-0  26595-3 0  2751
2 28352 071.0061 014.3165 0013331 033.7826 029.1667 14.11335821507975
Epoch (UTC): 19 April 2014 20:28:12
Eccentricity: 0.0013331
inclination: 71.0061°
perigee height: 845 km
apogee height: 864 km
right ascension of ascending node: 14.3165°
argument of perigee: 33.7826°
revolutions per day: 14.11335821
mean anomaly at epoch: 29.1667°
orbit number at epoch: 50797

The dashed part of the orbit path shows where the satellite is in the earth's shadow,  

DLR